Regional Weather Roundup
Issued by NWS

Home | Current Version | Previous Version | Text Only | Print | Product List | Glossary On
Versions: 1 2 3 4 5 6 7 8 9 10 11 12 13 14 15 16 17 18 19 20 21 22 23 24 25 26 27 28 29 30 31 32 33 34 35 36 37 38 39 40 41 42 43 44 45 46 47 48 49 50
000
ASUS42 KTBW 190918
RWRFL
FLORIDA REGIONAL WEATHER ROUNDUP
NATIONAL WEATHER SERVICE TAMPA BAY RUSKIN FL
500 AM EDT SAT AUG 19 2017

NOTE: "FAIR" INDICATES FEW OR NO CLOUDS BELOW 12,000 FEET WITH NO
SIGNIFICANT WEATHER AND/OR OBSTRUCTIONS TO VISIBILITY.

FLZ001>010-012>015-112-114-115-191000-
PANHANDLE FLORIDA

CITY           SKY/WX    TMP DP  RH WIND       PRES   REMARKS
PENSACOLA      CLOUDY    78  72  81 NW5       29.97R
PENSACOLA NAS  CLOUDY    76  73  91 CALM      29.97R
MILTON NAS     CLEAR     75  73  93 N5        29.97
CRESTVIEW      CLEAR     77  73  87 N5        29.98S
DUKE FIELD     FAIR      74  72  93 CALM      29.96S
VALPARAISO     CLEAR     76  72  87 N5        29.95S
MARY ESTHER    PTCLDY    75  73  93 N3        29.95R
PANAMA CITY    FAIR      77  75  93 CALM      29.96R
TYNDALL AFB    PTCLDY    80  76  90 CALM      29.95F
APALACHICOLA   CLOUDY    80  80 100 N3        29.95F

STATION/POSITION SKY/WX   TEMP    WIND        PRES    WAVE   SWELL
                          AIR SEA DIR/SP/G            HT/PER HT/PER
                          (F)     (DEG/KT/KT) (MB)    (FT/S) (FT/S)
30.1N   87.6W              84 86  300/  6/  8 1014.4S   1
29.2N   88.2W              84 88  300/ 10/ 12 1015.1F   1/ 6
28.8N   86.0W              85 87  280/ 10/ 12 1014.1F   1/ 8   2/ 8
PANAMA CITY BEAC           80     330/  4/  6 1014.9R
TOWER C                    85                 1014.5F
28.5N   84.5W              84 86  240/  6/  8 1014.7R   1/ 5   2/ 5

$$
FLZ011-016>038-118-127-128-134-139-239-191000-
NORTH FLORIDA

CITY           SKY/WX    TMP DP  RH WIND       PRES   REMARKS
MARIANNA       PTCLDY    77  76  96 CALM      29.96S
TALLAHASSEE    CLEAR     79  78  97 NW3       29.95F
PERRY          CLEAR     76  75  96 CALM      29.96S FOG
LIVE OAK       PTCLDY    73  73 100 CALM      29.97F FOG
CROSS CITY     CLEAR     75  74  98 CALM      30.01S
LAKE CITY      CLOUDY    72  72 100 CALM      29.98S FOG
GAINESVILLE    FOG       73  73 100 CALM      30.00S VSB 1/2
WILLISTON      FOG       75  75 100 CALM      29.98R VSB 0
PALATKA        CLOUDY    73  73 100 SW5       29.99R FOG
MAYPORT NAS    CLEAR     75  74  96 S3        29.97S
JACKSONVILLE   CLEAR     74  74 100 CALM      29.95F
JAX NAS        CLEAR     77  75  93 S3        29.97F
JAX CECIL      PTCLDY    73  73 100 CALM      29.97S FOG
FERNANDINA BEA FAIR      75  72  88 CALM      29.95S
ST AUGUSTINE   PTCLDY    75  73  94 CALM      29.99S
PALM COAST     FAIR      73  17  12 NW3       29.98S

STATION/POSITION SKY/WX   TEMP    WIND        PRES    WAVE   SWELL
                          AIR SEA DIR/SP/G            HT/PER HT/PER
                          (F)     (DEG/KT/KT) (MB)    (FT/S) (FT/S)
SHELL POINT      NOT AVBL
KEATON BEACH               78      90/  6/  7 1013.9S
CEDAR KEY                  82      CALM  /  1 1015.0S
FERNANDINA                 78 85   CALM  /  3 1015.3F
30.7N   81.3W                 84                N/A     2/ 7
MAYPORT                    77 85  200/  4/  5 1015.2R
31.4N   80.9W              81 85  240/ 10/ 12 1013.8F   2/ 8   2/ 8
ST AUGUSTINE               75 80  210/  3/  4 1015.3F

$$
FLZ040-043>046-052-053-057-058-063-144-191000-
INTERIOR CENTRAL FLORIDA

CITY           SKY/WX    TMP DP  RH WIND       PRES   REMARKS
OCALA          RAIN      74  74 100 CALM      29.99S VSB 1/4
THE VILLAGES     N/A     73  73 100 CALM      29.89S
LEESBURG       PTCLDY    75  75 100 CALM      29.99S
SANFORD        PTCLDY    75  71  87 CALM      29.98S
ORLANDO EXEC   CLOUDY    75  73  93 CALM      29.99S
ORLANDO INTL   MOCLDY    73  73 100 SE3       29.99S
KISSIMMEE      CLOUDY    74  72  93 CALM      30.00F
WINTER HAVEN   CLEAR     75  71  87 SE5       29.99F
LAKELAND         N/A     72  72 100 CALM      29.99S
BARTOW         FAIR      70 N/A N/A E6        29.99S
SEBRING        FAIR      72  69  90 CALM      29.98F
OKEECHOBEE     CLEAR     70  70 100 N3        29.97F

$$
FLZ041-047-054-059-064-141-147-191000-
EAST CENTRAL FLORIDA

CITY           SKY/WX    TMP DP  RH WIND       PRES   REMARKS
DAYTONA BEACH  PTCLDY    73  73 100 CALM      29.98S
DELAND         MOCLDY    73  72  94 SW5       29.98S
JFK SPACE CTR  MOCLDY    72  72 100 NW3       29.97S
CAPE CANAVERAL MOCLDY    75  72  88 NW3       29.97F
PATRICK AFB    MOCLDY    78  72  80 W5        29.98S
MELBOURNE      PTCLDY    74  70  87 W5        29.98F
VERO BEACH     CLEAR     74  72  93 W3        29.98S
FT PIERCE      CLEAR     73  73 100 CALM      29.97F
STUART         CLEAR     79  79 100 CALM      29.98S

STATION/POSITION SKY/WX   TEMP    WIND        PRES    WAVE   SWELL
                          AIR SEA DIR/SP/G            HT/PER HT/PER
                          (F)     (DEG/KT/KT) (MB)    (FT/S) (FT/S)
28.5N   80.2W              81 85  280/  6/  8 1016.4F   1/ 8   2/ 8
28.9N   78.5W              84 85  180/ 12/ 14 1014.9F   2/ 7   2/ 7
TRIDENT PIER               78 85  270/  3/  5 1016.9F
28.4N   80.5W                 85                N/A     1/ 8
27.5N   80.2W                 84                N/A     1/ 8

$$
FLZ050-056-061-142-242-148-248-149-249-151-251-155-255-
160-260-191000-
WEST CENTRAL FLORIDA

CITY           SKY/WX    TMP DP  RH WIND       PRES   REMARKS
CRYSTAL RIVER  FAIR      73  73 100 CALM      29.98R
INVERNESS      FOG       73  73 100 CALM      29.99R VSB<1/4
BROOKSVILLE    PTCLDY    75  74  96 CALM      29.99S
CLEARWATER AIR FAIR      77  75  94 SE3       29.98R
ST PETE CLEARW PTCLDY    78  73  84 S5        29.97S
TAMPA INTL     PTCLDY    78  73  84 CALM      29.98S
TAMPA EXEC     CLEAR     75  72  88 CALM      29.98F
PLANT CITY     CLEAR     75  73  94 CALM      30.00S
MACDILL AFB    CLEAR     76  75  97 SE3       29.97F
PETER O KNIGHT MOCLDY    79  75  89 S7        29.98S
ST PETERSBURG  CLEAR     80  72  76 S5        29.95F
SARASOTA       CLEAR     73  68  84 SE6       29.96F
VENICE         FAIR      73  72  94 NE6       29.97F

STATION/POSITION SKY/WX   TEMP    WIND        PRES    WAVE   SWELL
                          AIR SEA DIR/SP/G            HT/PER HT/PER
                          (F)     (DEG/KT/KT) (MB)    (FT/S) (FT/S)
CLEARWATER BEACH           80 89  140/  8/ 10 1015.0F
MIDDLE TAMPA BAY           79     170/  4/  6 1014.9F
VENICE                     75 89   70/  5/  6 1014.7F

$$
FLZ066-069-070-075>078-162-262-165-265-191000-
SOUTHWEST FLORIDA AND KEYS

CITY           SKY/WX    TMP DP  RH WIND       PRES   REMARKS
PUNTA GORDA    CLEAR     72  70  93 NE3       29.99S
FT MYERS       CLEAR     75  75 100 E3        29.96F
SOUTHWEST INTL CLEAR     75  73  93 CALM      29.97S
NAPLES         CLEAR     75  73  93 CALM      29.96F
IMMOKALEE      FAIR      72  72 100 NW3       29.98F
MARATHON       CLEAR     85  77  77 VRB7      29.93S HX  95
KEY WEST NAS   PTCLDY    83  79  88 CALM      29.94R
KEY WEST INTL  PTCLDY    84  76  76 E6        29.94S

STATION/POSITION SKY/WX   TEMP    WIND        PRES    WAVE   SWELL
                          AIR SEA DIR/SP/G            HT/PER HT/PER
                          (F)     (DEG/KT/KT) (MB)    (FT/S) (FT/S)
NAPLES                        90   80/  5/  5 1014.6F
DRY TORTUGAS               85      90/  2/  5 1014.1F
SAND KEY                   84                 1014.5R
MOLASSES REEF              85 87   60/  8/ 10 1013.8F

$$
FLZ067-068-071>074-168-172>174-191000-
SOUTHEAST FLORIDA

CITY           SKY/WX    TMP DP  RH WIND       PRES   REMARKS
W PALM BEACH   PTCLDY    82  75  79 E7        29.96F
FT LAUDER-EXEC CLOUDY    80  77  90 N5        29.95F
FT LAUDERDALE  MOCLDY    83  76  79 E9        29.94F
POMPANO BEACH  MOCLDY    84  75  74 E6        29.95F
PEMBROKE PINES PTCLDY    81  75  82 N6        29.96F
OPA LOCKA      PTCLDY    82  77  84 NE5       29.95F
MIAMI          PTCLDY    83  75  77 NE3       29.94F
WEST KENDALL   PTCLDY    79  74  84 E6        29.93F
HOMESTEAD      PTCLDY    78  77  96 E6        29.92F

STATION/POSITION SKY/WX   TEMP    WIND        PRES    WAVE   SWELL
                          AIR SEA DIR/SP/G            HT/PER HT/PER
                          (F)     (DEG/KT/KT) (MB)    (FT/S) (FT/S)
PORT EVERGLADES            85      80/  6/  8 1014.2F
VIRGINIA KEY               85 90   70/ 10/ 12 1013.4F
LAKE WORTH                        130/  6/  8   N/A
FOWEY ROCKS                85 86   80/ 11/ 12 1014.5F
SETTLEMENT POINT           83     140/  6/  7 1014.8F

$$




USA.gov is the U.S. government's official web portal to all federal, state and local government web resources and services.